Time,TemperatureF,DewpointF,PressureIn,WindDirection,WindDirectionDegrees,WindSpeedMPH,WindSpeedGustMPH,Humidity,HourlyPrecipIn,Conditions,Clouds,dailyrainin,SolarRadiationWatts/m^2,SoftwareType,DateUTC
2013-02-19 00:02:00,48.0,27.0,-100.00,NE,53,5.0,12.0,43,0.00,,,0.00,1.000000,,2013-02-19 06:02:00,
2013-02-19 00:33:00,47.0,27.0,-100.00,NNE,33,5.0,11.0,45,0.00,,,-99.99,1.000000,,2013-02-19 06:33:00,
2013-02-19 00:42:00,47.0,27.0,-100.00,NNE,33,5.0,11.0,45,0.00,,,-99.99,1.000000,,2013-02-19 06:42:00,
2013-02-19 00:52:00,47.0,27.0,-100.00,NNE,33,5.0,11.0,45,0.00,,,-99.99,1.000000,,2013-02-19 06:52:00,
2013-02-19 01:01:00,47.0,27.0,-100.00,NNE,33,5.0,11.0,45,0.00,,,-99.99,1.000000,,2013-02-19 07:01:00,
2013-02-19 01:32:00,45.0,26.0,-100.00,South,182,5.0,15.0,47,0.00,,,-99.99,1.000000,,2013-02-19 07:32:00,
2013-02-19 01:42:00,45.0,26.0,-100.00,South,182,5.0,15.0,47,0.00,,,-99.99,1.000000,,2013-02-19 07:42:00,
2013-02-19 01:52:00,45.0,26.0,-100.00,South,182,5.0,15.0,47,0.00,,,-99.99,1.000000,,2013-02-19 07:52:00,
2013-02-19 02:02:00,45.0,26.0,-100.00,South,182,5.0,15.0,47,0.00,,,-99.99,1.000000,,2013-02-19 08:02:00,
2013-02-19 02:32:00,44.0,26.0,-100.00,SE,131,2.0,10.0,48,0.00,,,0.00,1.000000,,2013-02-19 08:32:00,
2013-02-19 02:42:00,44.0,26.0,-100.00,SE,131,2.0,10.0,48,0.00,,,0.00,1.000000,,2013-02-19 08:42:00,
2013-02-19 02:52:00,44.0,26.0,-100.00,SE,131,2.0,10.0,48,0.00,,,0.00,1.000000,,2013-02-19 08:52:00,
2013-02-19 03:01:00,44.0,26.0,-100.00,SE,131,2.0,10.0,48,0.00,,,0.00,1.000000,,2013-02-19 09:01:00,
2013-02-19 03:32:00,43.0,27.0,-100.00,SSE,156,0.0,4.0,52,0.00,,,0.00,1.000000,,2013-02-19 09:32:00,
2013-02-19 03:42:00,43.0,27.0,-100.00,SSE,156,0.0,4.0,52,0.00,,,0.00,1.000000,,2013-02-19 09:42:00,
2013-02-19 03:53:00,43.0,27.0,-100.00,SSE,156,0.0,4.0,52,0.00,,,0.00,1.000000,,2013-02-19 09:53:00,
2013-02-19 04:01:00,43.0,27.0,-100.00,SSE,156,0.0,4.0,52,0.00,,,0.00,1.000000,,2013-02-19 10:01:00,
2013-02-19 04:32:00,44.0,29.0,-100.00,NNW,346,3.0,5.0,56,0.00,,,0.00,1.000000,,2013-02-19 10:32:00,
2013-02-19 04:42:00,44.0,29.0,-100.00,NNW,346,3.0,5.0,56,0.00,,,0.00,1.000000,,2013-02-19 10:42:00,
2013-02-19 04:52:00,44.0,29.0,-100.00,NNW,346,3.0,5.0,56,0.00,,,0.00,1.000000,,2013-02-19 10:52:00,
2013-02-19 05:01:00,44.0,29.0,-100.00,NNW,346,3.0,5.0,56,0.00,,,0.00,1.000000,,2013-02-19 11:01:00,
2013-02-19 05:32:00,42.0,26.0,-100.00,ENE,68,2.0,6.0,53,0.00,,,0.00,1.000000,,2013-02-19 11:32:00,
2013-02-19 05:42:00,42.0,26.0,-100.00,ENE,68,2.0,6.0,53,0.00,,,0.00,1.000000,,2013-02-19 11:42:00,
2013-02-19 05:52:00,42.0,26.0,-100.00,ENE,68,2.0,6.0,53,0.00,,,0.00,1.000000,,2013-02-19 11:52:00,
2013-02-19 06:02:00,42.0,26.0,-100.00,ENE,68,2.0,6.0,53,0.00,,,0.00,1.000000,,2013-02-19 12:02:00,
2013-02-19 06:32:00,41.0,28.0,-100.00,ENE,77,6.0,6.0,59,0.00,,,0.00,1.000000,,2013-02-19 12:32:00,
2013-02-19 06:42:00,41.0,28.0,-100.00,ENE,77,6.0,6.0,59,0.00,,,0.00,1.000000,,2013-02-19 12:42:00,
2013-02-19 06:52:00,41.0,28.0,-100.00,ENE,77,6.0,6.0,59,0.00,,,0.00,1.000000,,2013-02-19 12:52:00,
2013-02-19 07:02:00,41.0,28.0,-100.00,ENE,77,6.0,6.0,59,0.00,,,0.00,1.000000,,2013-02-19 13:02:00,
2013-02-19 07:32:00,40.0,26.0,-100.00,ENE,66,7.0,7.0,56,0.00,,,0.00,1.000000,,2013-02-19 13:32:00,
2013-02-19 07:42:00,40.0,26.0,-100.00,ENE,66,7.0,7.0,56,0.00,,,0.00,1.000000,,2013-02-19 13:42:00,
2013-02-19 07:52:00,40.0,26.0,-100.00,ENE,66,7.0,7.0,56,0.00,,,0.00,1.000000,,2013-02-19 13:52:00,
2013-02-19 08:01:00,40.0,26.0,-100.00,ENE,66,7.0,7.0,56,0.00,,,0.00,1.000000,,2013-02-19 14:01:00,
2013-02-19 08:33:00,43.0,30.0,-100.00,East,91,5.0,9.0,60,0.00,,,0.00,58.000000,,2013-02-19 14:33:00,
2013-02-19 08:42:00,43.0,30.0,-100.00,East,91,5.0,9.0,60,0.00,,,0.00,58.000000,,2013-02-19 14:42:00,
2013-02-19 08:52:00,43.0,30.0,-100.00,East,91,5.0,9.0,60,0.00,,,0.00,58.000000,,2013-02-19 14:52:00,
2013-02-19 09:01:00,43.0,30.0,-100.00,East,91,5.0,9.0,60,0.00,,,0.00,58.000000,,2013-02-19 15:01:00,
2013-02-19 09:32:00,48.0,28.0,-100.00,East,100,10.0,15.0,45,0.00,,,0.00,262.000000,,2013-02-19 15:32:00,
2013-02-19 09:42:00,48.0,28.0,-100.00,East,100,10.0,15.0,45,0.00,,,0.00,262.000000,,2013-02-19 15:42:00,
2013-02-19 09:52:00,48.0,28.0,-100.00,East,100,10.0,15.0,45,0.00,,,0.00,262.000000,,2013-02-19 15:52:00,
2013-02-19 10:02:00,48.0,28.0,-100.00,East,100,10.0,15.0,45,0.00,,,0.00,262.000000,,2013-02-19 16:02:00,
2013-02-19 11:32:00,55.0,25.0,-100.00,East,97,13.0,20.0,31,-99.99,,,0.00,598.000000,,2013-02-19 17:32:00,
2013-02-19 11:42:00,55.0,25.0,-100.00,East,97,13.0,20.0,31,-99.99,,,0.00,598.000000,,2013-02-19 17:42:00,
2013-02-19 11:52:00,55.0,25.0,-100.00,East,97,13.0,20.0,31,-99.99,,,0.00,598.000000,,2013-02-19 17:52:00,
2013-02-19 12:01:00,55.0,25.0,-100.00,East,97,13.0,20.0,31,-99.99,,,0.00,598.000000,,2013-02-19 18:01:00,
2013-02-19 12:32:00,58.0,25.0,-100.00,East,95,14.0,22.0,28,0.00,,,0.00,681.000000,,2013-02-19 18:32:00,
2013-02-19 12:42:00,58.0,25.0,-100.00,East,95,14.0,22.0,28,0.00,,,0.00,681.000000,,2013-02-19 18:42:00,
2013-02-19 12:52:00,58.0,25.0,-100.00,East,95,14.0,22.0,28,0.00,,,0.00,681.000000,,2013-02-19 18:52:00,
2013-02-19 13:01:00,58.0,25.0,-100.00,East,95,14.0,22.0,28,0.00,,,0.00,681.000000,,2013-02-19 19:01:00,
2013-02-19 13:32:00,58.0,23.0,-100.00,East,100,16.0,22.0,26,0.00,,,0.00,482.000000,,2013-02-19 19:32:00,
2013-02-19 13:42:00,58.0,23.0,-100.00,East,100,16.0,22.0,26,0.00,,,0.00,482.000000,,2013-02-19 19:42:00,
2013-02-19 13:52:00,58.0,23.0,-100.00,East,100,16.0,22.0,26,0.00,,,0.00,482.000000,,2013-02-19 19:52:00,
2013-02-19 14:01:00,58.0,23.0,-100.00,East,100,16.0,22.0,26,0.00,,,0.00,482.000000,,2013-02-19 20:01:00,
2013-02-19 14:32:00,62.0,24.0,-100.00,ESE,109,17.0,25.0,23,0.00,,,-99.99,652.000000,,2013-02-19 20:32:00,
2013-02-19 14:42:00,62.0,24.0,-100.00,ESE,109,17.0,25.0,23,0.00,,,-99.99,652.000000,,2013-02-19 20:42:00,
2013-02-19 14:52:00,62.0,24.0,-100.00,ESE,109,17.0,25.0,23,0.00,,,-99.99,652.000000,,2013-02-19 20:52:00,
2013-02-19 15:02:00,62.0,24.0,-100.00,ESE,109,17.0,25.0,23,0.00,,,-99.99,652.000000,,2013-02-19 21:02:00,
2013-02-19 15:32:00,61.0,21.0,-100.00,ESE,111,16.0,26.0,21,0.00,,,0.00,414.000000,,2013-02-19 21:32:00,
2013-02-19 15:42:00,61.0,21.0,-100.00,ESE,111,16.0,26.0,21,0.00,,,0.00,414.000000,,2013-02-19 21:42:00,
2013-02-19 15:52:00,61.0,21.0,-100.00,ESE,111,16.0,26.0,21,0.00,,,0.00,414.000000,,2013-02-19 21:52:00,
2013-02-19 16:02:00,61.0,21.0,-100.00,ESE,111,16.0,26.0,21,0.00,,,0.00,414.000000,,2013-02-19 22:02:00,
2013-02-19 16:32:00,60.0,22.0,-100.00,East,101,14.0,22.0,23,0.00,,,-99.99,134.000000,,2013-02-19 22:32:00,
2013-02-19 16:42:00,60.0,22.0,-100.00,East,101,14.0,22.0,23,0.00,,,-99.99,134.000000,,2013-02-19 22:42:00,
2013-02-19 16:52:00,60.0,22.0,-100.00,East,101,14.0,22.0,23,0.00,,,-99.99,134.000000,,2013-02-19 22:52:00,
2013-02-19 17:01:00,60.0,22.0,-100.00,East,101,14.0,22.0,23,0.00,,,-99.99,134.000000,,2013-02-19 23:01:00,
2013-02-19 17:32:00,60.0,22.0,-100.00,East,99,14.0,20.0,23,0.00,,,0.00,75.000000,,2013-02-19 23:32:00,
2013-02-19 17:42:00,60.0,22.0,-100.00,East,99,14.0,20.0,23,0.00,,,0.00,75.000000,,2013-02-19 23:42:00,
2013-02-19 17:52:00,60.0,22.0,-100.00,East,99,14.0,20.0,23,0.00,,,0.00,75.000000,,2013-02-19 23:52:00,
2013-02-19 18:01:00,60.0,22.0,-100.00,East,99,14.0,20.0,23,0.00,,,0.00,75.000000,,2013-02-20 00:01:00,
2013-02-19 18:32:00,60.0,21.0,-100.00,SE,125,11.0,19.0,22,0.00,,,0.00,30.000000,,2013-02-20 00:32:00,
2013-02-19 18:42:00,60.0,21.0,-100.00,SE,125,11.0,19.0,22,0.00,,,0.00,30.000000,,2013-02-20 00:42:00,
2013-02-19 18:52:00,60.0,21.0,-100.00,SE,125,11.0,19.0,22,0.00,,,0.00,30.000000,,2013-02-20 00:52:00,
2013-02-19 19:02:00,60.0,21.0,-100.00,SE,125,11.0,19.0,22,0.00,,,0.00,30.000000,,2013-02-20 01:02:00,
2013-02-19 19:32:00,58.0,19.0,-100.00,East,89,11.0,16.0,22,0.00,,,0.00,2.000000,,2013-02-20 01:32:00,
2013-02-19 19:42:00,58.0,19.0,-100.00,East,89,11.0,16.0,22,0.00,,,0.00,2.000000,,2013-02-20 01:42:00,
2013-02-19 19:52:00,58.0,19.0,-100.00,East,89,11.0,16.0,22,0.00,,,0.00,2.000000,,2013-02-20 01:52:00,
2013-02-19 20:01:00,58.0,19.0,-100.00,East,89,11.0,16.0,22,0.00,,,0.00,2.000000,,2013-02-20 02:01:00,
2013-02-19 20:32:00,57.0,20.0,-100.00,East,92,10.0,15.0,23,0.00,,,0.00,1.000000,,2013-02-20 02:32:00,
2013-02-19 20:42:00,57.0,20.0,-100.00,East,92,10.0,15.0,23,0.00,,,0.00,1.000000,,2013-02-20 02:42:00,
2013-02-19 20:52:00,57.0,20.0,-100.00,East,92,10.0,15.0,23,0.00,,,0.00,1.000000,,2013-02-20 02:52:00,
2013-02-19 21:02:00,57.0,20.0,-100.00,East,92,10.0,15.0,23,0.00,,,0.00,1.000000,,2013-02-20 03:02:00,
2013-02-19 21:32:00,57.0,22.0,-100.00,East,99,14.0,18.0,25,0.00,,,0.00,1.000000,,2013-02-20 03:32:00,
2013-02-19 21:42:00,57.0,22.0,-100.00,East,99,14.0,18.0,25,0.00,,,0.00,1.000000,,2013-02-20 03:42:00,
2013-02-19 21:52:00,57.0,22.0,-100.00,East,99,14.0,18.0,25,0.00,,,0.00,1.000000,,2013-02-20 03:52:00,
2013-02-19 22:01:00,57.0,22.0,-100.00,East,99,14.0,18.0,25,0.00,,,0.00,1.000000,,2013-02-20 04:01:00,
2013-02-19 22:32:00,56.0,23.0,-100.00,East,100,13.0,23.0,27,0.00,,,0.00,1.000000,,2013-02-20 04:32:00,
2013-02-19 22:42:00,56.0,23.0,-100.00,East,100,13.0,23.0,27,0.00,,,0.00,1.000000,,2013-02-20 04:42:00,
2013-02-19 22:52:00,56.0,23.0,-100.00,East,100,13.0,23.0,27,0.00,,,0.00,1.000000,,2013-02-20 04:52:00,
2013-02-19 23:02:00,56.0,23.0,-100.00,East,100,13.0,23.0,27,0.00,,,0.00,1.000000,,2013-02-20 05:02:00,
2013-02-19 23:32:00,53.0,22.0,-100.00,East,96,9.0,15.0,30,0.00,,,0.00,1.000000,,2013-02-20 05:32:00,
2013-02-19 23:43:00,53.0,22.0,-100.00,East,96,9.0,15.0,30,0.00,,,0.00,1.000000,,2013-02-20 05:43:00,
2013-02-19 23:52:00,53.0,22.0,-100.00,East,96,9.0,15.0,30,0.00,,,0.00,1.000000,,2013-02-20 05:52:00,